Regional Weather Roundup
Issued by NWS

Home | Current Version | Previous Version | Text Only | Print | Product List | Glossary Off
Versions: 1 2 3 4 5 6 7 8 9 10 11 12 13 14 15 16 17 18 19 20 21 22 23 24 25 26 27 28 29 30 31 32 33 34 35 36 37 38 39 40 41 42 43 44 45 46 47 48 49 50

000
ASUS43 KDTX 012010
RWRMI
MICHIGAN HOURLY REGIONAL WEATHER ROUNDUP
NATIONAL WEATHER SERVICE DETROIT/PONTIAC MI
300 PM EST SUN MAR 01 2015

NOTE: "FAIR" INDICATES FEW OR NO CLOUDS BELOW 12,000 FEET WITH NO
SIGNIFICANT WEATHER AND/OR OBSTRUCTION TO VISIBILITY.

MIZ047>049-052>055-059>063-066>070-074>076-081>083-012100-
SOUTHEAST LOWER MICHIGAN

CITY           SKY/WX    TMP DP  RH WIND       PRES   REMARKS
ADRIAN         CLOUDY    22  18  85 CALM      30.27F FOG
ALMA           CLOUDY    25  17  72 SW8       30.24F
ANN ARBOR      CLOUDY    23  16  74 W8        30.25F
BAD AXE        PTSUNNY   23  14  70 W8        30.23F
DETROIT CITY   LGT SNOW  25  18  74 SW9       30.25F
DETROIT        LGT SNOW  25  19  80 SW7       30.27F
FLINT          MOSUNNY   26  13  57 W8        30.25F
GROSSE ILE     LGT SNOW  25  19  80 W5        30.26F
HILLSDALE      LGT SNOW  24  18  78 W3        30.23F
HOWELL         MOSUNNY   25  13  61 W6        30.23F

CITY           SKY/WX    TMP DP  RH WIND       PRES   REMARKS
JACKSON        CLOUDY    22  15  75 SW7       30.24F
LAMBERTVILLE   LGT SNOW  25  19  80 CALM      30.28S
LANSING        PTSUNNY   24  14  65 SW9       30.25F
LAPEER         NOT AVBL
MASON          MOSUNNY   24  13  64 W7        30.24F
MONROE         LGT SNOW  23  18  80 NW5       30.26F
MT. CLEMENS    LGT SNOW  23  19  84 SE6       30.23S FOG
PONTIAC        PTSUNNY   24  13  62 NW6       30.22F
PORT HOPE        N/A     22  11  62 SW8       30.23F
PORT HURON     CLOUDY    25  14  63 W3        30.25F
TRI CITIES     PTSUNNY   25  15  66 W13       30.24F
YPSILANTI      LGT SNOW  26  18  71 SW6       30.26F
$$
MIZ043>046-050>051-056>058-064>065-071>073-077>080-012100-
SOUTHWEST LOWER MICHIGAN

CITY           SKY/WX    TMP DP  RH WIND       PRES   REMARKS
BATTLE CREEK   MOSUNNY   24  16  71 S7        30.25F
BENTON HARBOR  PTSUNNY   22  18  85 W10       30.29F
BIG RAPIDS     LGT SNOW  24  17  77 W12       30.21S
COLDWATER      LGT SNOW  24  18  78 W3        30.25F
HOLLAND        LGT SNOW  24  19  81 SW13      30.28F
GRAND RAPIDS   CLOUDY    25  15  66 W15       30.26F
KALAMAZOO      PTSUNNY   24  15  68 SW3       30.26F
MARSHALL       CLOUDY    24  16  70 SW5       30.25F
MUSKEGON       FLURRIES  24  17  74 SW13      30.27F
$$
MIZ016>042-012100-
NORTHERN LOWER MICHIGAN

CITY           SKY/WX    TMP DP  RH WIND       PRES   REMARKS
ALPENA         MOSUNNY   28  12  51 SW13G20   30.17F
BEAVER ISLAND  CLOUDY    23  16  73 SW14G22   30.15F
BELLAIRE       CLOUDY    26  13  59 W9G17     30.19F
CADILLAC       FLURRIES  22  14  72 SW14G20   30.15F
CHARLEVOIX     CLOUDY    24  14  67 SW16      30.20F
FRANKFORT      CLOUDY    23  17  75 SW12G21   30.21F
GAYLORD        CLOUDY    22  13  68 W12       30.12F
GRAYLING       CLOUDY    26  13  58 SW10G16   30.16F
HARBOR SPRINGS CLOUDY    23  15  70 W10G16    30.16F
HOUGHTON LAKE  CLOUDY    23  13  65 W9        30.17F
MANISTEE       CLOUDY    23  12  63 SW13G18   30.23F
OSCODA         PTSUNNY   27  14  57 SW13G20   30.19F
PELLSTON       PTSUNNY   23  11  60 W13       30.16F
TRAVERSE CITY  CLOUDY    26  14  60 SW14G20   30.18F
$$
MIZ007>008-015-012100-
EASTERN UPPER MICHIGAN

CITY           SKY/WX    TMP DP  RH WIND       PRES   REMARKS
KINROSS        MOSUNNY   25  16  68 SW14      30.12F
MACKINAC ISLAN MOSUNNY   22  15  74 SW15G23   30.15F
NEWBERRY       CLOUDY    22  15  72 S15G24    30.08F
S. S. MARIE    PTSUNNY   24  11  57 SW10G21   30.11F
$$
MIZ004>006-011>014-085-012100-
CENTRAL UPPER MICHIGAN

CITY           SKY/WX    TMP DP  RH WIND       PRES   REMARKS
MANISTIQUE     CLOUDY    24  17  74 SW13G23   30.11F
ESCANABA       PTSUNNY   25  16  68 SW17      30.12F
MENOMINEE      CLOUDY    27  12  54 SW13G21   30.13F
SAWYER-GWINN   CLOUDY    25  14  63 SW16G26   30.03F
$$
MIZ001>003-009>011-084-012100-
WESTERN UPPER MICHIGAN

CITY           SKY/WX    TMP DP  RH WIND       PRES   REMARKS
IRON MOUNTAIN  CLOUDY    26  13  57 W12G22    30.05F
HOUGHTON       CLOUDY    21  11  65 W17       30.02F
COPPER HARBOR    N/A     23  12  62 NW7       30.04F
IRONWOOD       CLOUDY    21   9  58 W17       30.04F
$$

ABBREVIATIONS USED IN REMARKS
   TC - TEMPERATURE IN CELSIUS
  WCI - WIND CHILL INDEX
   HX - HEAT INDEX
  VSB - VISIBILITY




USA.gov is the U.S. government's official web portal to all federal, state and local government web resources and services.